Weather History for Linton Municipal Airport, ND

Change the Weather History Date:

Sunday, May 11, 2014

  Actual Average (KBIS) Record (KBIS)
Temperature  
Mean Temperature 44 °F 54 °F  
Max Temperature 48 °F 67 °F 96 °F (1906)
Min Temperature 39 °F 41 °F 24 °F (1952)
Degree Days  
Heating Degree Days 22 11  
Month to date heating degree days 143  
Since 1 July heating degree days 8298  
Cooling Degree Days 0 0  
Month to date cooling degree days 0  
Year to date cooling degree days 1  
Moisture  
Dew Point 43 °F    
Average Humidity 91    
Maximum Humidity 100    
Minimum Humidity 76    
Precipitation  
Precipitation 0.00 in 0.07 in 1.90 in (1985)
Month to date precipitation 0.74  
Year to date precipitation 3.81  
Snow  
Snow 0.00 in 0.00 in 1.80 in (1953)
Month to date snowfall 0.3  
Since 1 July snowfall 51.1  
Snow Depth -    
Sea Level Pressure  
Sea Level Pressure 29.95 in    
Wind  
Wind Speed 15 mph (NNW)    
Max Wind Speed 25 mph    
Max Gust Speed 34 mph    
Visibility 9 miles    
Events      
T = Trace of Precipitation, MM = Missing Value Source: NWS Daily Summary

Daily Weather History Graph

Daily Weather History Graph

Search for Another Location

Airport:

Trip Planner

Search our weather history database for the weather conditions in past years. The results will help you decide how hot, cold, wet, or windy it might be!

Date:

Astronomy

May. 11, 2014 Rise Set
Actual Time 6:13 AM CDT 9:02 PM CDT
Civil Twilight 5:38 AM CDT 9:37 PM CDT
Nautical Twilight 4:54 AM CDT 10:21 PM CDT
Astronomical Twilight 4:02 AM CDT 11:14 PM CDT
Moon 5:49 PM CDT (5/11) 4:31 AM CDT (5/11)
Length of Visible Light 15h 58m
Length of Day
14h 49m
Waxing Gibbous, 89% of the Moon is Illuminated
May 11
Waxing Gibbous
May 14
Full
May 21
Last Quarter
May 28
New
Jun 5
First Quarter

Hourly Weather History & Observations

Time (CDT) Temp. Windchill Dew Point Humidity Pressure Visibility Wind Dir Wind Speed Gust Speed Precip Events Conditions
12:15 AM 46.4 °F 41.1 °F 46.4 °F 100% 29.78 in 5.0 mi NNW 11.5 mph - N/A   Overcast
12:35 AM 46.4 °F 41.9 °F 46.4 °F 100% 29.79 in 5.0 mi WNW 9.2 mph - N/A   Overcast
12:55 AM 46.4 °F 40.7 °F 46.4 °F 100% 29.79 in 9.0 mi NW 12.7 mph - N/A   Overcast
1:15 AM 46.4 °F 41.1 °F 46.4 °F 100% 29.79 in 10.0 mi WNW 11.5 mph - N/A   Overcast
1:35 AM 44.6 °F 39.7 °F 44.6 °F 100% 29.81 in 10.0 mi WNW 9.2 mph - N/A   Overcast
1:55 AM 44.6 °F 39.2 °F 44.6 °F 100% 29.80 in 10.0 mi NW 10.4 mph - N/A   Overcast
2:15 AM 46.4 °F 41.9 °F 46.4 °F 100% 29.82 in 10.0 mi WNW 9.2 mph - N/A   Overcast
2:35 AM 44.6 °F 38.4 °F 44.6 °F 100% 29.82 in 10.0 mi WNW 12.7 mph - N/A   Overcast
2:55 AM 46.4 °F 40.7 °F 46.4 °F 100% 29.83 in 4.0 mi WNW 12.7 mph - N/A   Overcast
3:15 AM 44.6 °F 38.1 °F 44.6 °F 100% 29.83 in 2.5 mi WNW 13.8 mph 17.3 mph N/A   Overcast
3:35 AM 44.6 °F 37.2 °F 44.6 °F 100% 29.83 in 3.0 mi NW 17.3 mph - N/A   Overcast
3:55 AM 46.4 °F 39.8 °F 46.4 °F 100% 29.84 in 4.0 mi NW 16.1 mph - N/A   Overcast
4:15 AM 46.4 °F 40.7 °F 46.4 °F 100% 29.85 in 5.0 mi NW 12.7 mph 18.4 mph N/A   Overcast
4:35 AM 46.4 °F 41.1 °F 46.4 °F 100% 29.85 in 5.0 mi NW 11.5 mph - N/A   Overcast
4:55 AM 46.4 °F 41.5 °F 46.4 °F 100% 29.86 in 5.0 mi NW 10.4 mph - N/A   Overcast
5:15 AM 44.6 °F 38.1 °F 44.6 °F 100% 29.86 in 5.0 mi NW 13.8 mph - N/A   Overcast
5:35 AM 44.6 °F 38.4 °F 44.6 °F 100% 29.87 in 5.0 mi NW 12.7 mph 17.3 mph N/A   Overcast
5:55 AM 44.6 °F 38.8 °F 44.6 °F 100% 29.88 in 5.0 mi NNW 11.5 mph - N/A   Overcast
6:15 AM 44.6 °F 38.4 °F 44.6 °F 100% 29.88 in 4.0 mi NNW 12.7 mph - N/A   Overcast
6:35 AM 44.6 °F 39.7 °F 44.6 °F 100% 29.89 in 7.0 mi NW 9.2 mph - N/A   Overcast
6:55 AM 44.6 °F 39.2 °F 44.6 °F 100% 29.89 in 5.0 mi NW 10.4 mph - N/A   Overcast
7:15 AM 44.6 °F 39.7 °F 44.6 °F 100% 29.89 in 9.0 mi NNW 9.2 mph - N/A   Overcast
7:35 AM 46.4 °F 41.1 °F 46.4 °F 100% 29.90 in 10.0 mi NNW 11.5 mph 17.3 mph N/A   Overcast
7:55 AM 46.4 °F 40.4 °F 46.4 °F 100% 29.90 in 10.0 mi NNW 13.8 mph 17.3 mph N/A   Overcast
8:15 AM 46.4 °F 39.8 °F 46.4 °F 100% 29.90 in 10.0 mi NNW 16.1 mph - N/A   Overcast
8:35 AM 46.4 °F 40.4 °F 46.4 °F 100% 29.89 in 10.0 mi NNW 13.8 mph 19.6 mph N/A   Overcast
8:55 AM 46.4 °F 39.8 °F 46.4 °F 100% 29.90 in 10.0 mi NNW 16.1 mph 23.0 mph N/A   Overcast
9:15 AM 46.4 °F 40.1 °F 46.4 °F 100% 29.90 in 10.0 mi North 15.0 mph - N/A   Overcast
9:35 AM 46.4 °F 39.5 °F 46.4 °F 100% 29.91 in 10.0 mi NNW 17.3 mph 25.3 mph N/A   Overcast
9:55 AM 46.4 °F 39.5 °F 44.6 °F 93% 29.95 in 10.0 mi North 17.3 mph 24.2 mph N/A   Overcast
10:15 AM 48.2 °F - 44.6 °F 87% 29.96 in 10.0 mi North 16.1 mph 25.3 mph N/A   Overcast
10:35 AM 46.4 °F 39.8 °F 44.6 °F 93% 29.97 in 10.0 mi North 16.1 mph 24.2 mph N/A   Overcast
10:55 AM 46.4 °F 40.4 °F 44.6 °F 93% 29.99 in 10.0 mi NNW 13.8 mph 18.4 mph N/A   Overcast
11:15 AM 46.4 °F 40.1 °F 44.6 °F 93% 29.99 in 10.0 mi NNW 15.0 mph 21.9 mph N/A   Overcast
11:35 AM 48.2 °F - 44.6 °F 87% 30.00 in 10.0 mi NNW 15.0 mph 21.9 mph N/A   Overcast
11:55 AM 48.2 °F - 42.8 °F 82% 30.01 in 10.0 mi NNW 15.0 mph 24.2 mph N/A   Overcast
12:15 PM 46.4 °F 39.2 °F 42.8 °F 87% 30.00 in 10.0 mi NNW 18.4 mph 25.3 mph N/A   Overcast
12:35 PM 48.2 °F - 41.0 °F 76% 30.01 in 10.0 mi NNW 17.3 mph 21.9 mph N/A   Overcast
12:55 PM 46.4 °F 39.0 °F 42.8 °F 87% 30.00 in 10.0 mi NNW 19.6 mph 25.3 mph N/A   Overcast
1:15 PM 46.4 °F 39.2 °F 41.0 °F 81% 29.99 in 10.0 mi NNW 18.4 mph 29.9 mph N/A   Overcast
1:35 PM 46.4 °F 38.7 °F 41.0 °F 81% 29.99 in 10.0 mi NNW 20.7 mph 29.9 mph N/A   Overcast
1:55 PM 46.4 °F 38.3 °F 41.0 °F 81% 29.99 in 10.0 mi North 23.0 mph 31.1 mph N/A   Overcast
2:15 PM 46.4 °F 38.5 °F 41.0 °F 81% 29.98 in 10.0 mi NNW 21.9 mph 32.2 mph N/A   Overcast
2:35 PM 46.4 °F 38.1 °F 41.0 °F 81% 29.98 in 10.0 mi NNW 24.2 mph 31.1 mph N/A   Overcast
2:55 PM 48.2 °F - 41.0 °F 76% 29.98 in 10.0 mi NNW 25.3 mph 34.5 mph N/A   Overcast
3:15 PM 48.2 °F - 41.0 °F 76% 29.98 in 10.0 mi NNW 25.3 mph 32.2 mph N/A   Overcast
3:35 PM 46.4 °F 38.5 °F 41.0 °F 81% 29.99 in 10.0 mi NNW 21.9 mph 29.9 mph N/A   Overcast
3:55 PM 48.2 °F - 41.0 °F 76% 29.99 in 10.0 mi North 15.0 mph 26.5 mph N/A   Overcast
4:15 PM 46.4 °F 39.0 °F 41.0 °F 81% 29.99 in 10.0 mi North 19.6 mph 29.9 mph N/A   Overcast
4:35 PM 46.4 °F 38.7 °F 39.2 °F 76% 30.00 in 10.0 mi North 20.7 mph 29.9 mph N/A   Overcast
4:55 PM 44.6 °F 36.1 °F 39.2 °F 81% 30.00 in 10.0 mi NNW 21.9 mph 28.8 mph N/A   Overcast
5:15 PM 44.6 °F 35.9 °F 39.2 °F 81% 30.00 in 10.0 mi North 23.0 mph 29.9 mph N/A   Overcast
5:35 PM 44.6 °F 36.9 °F 41.0 °F 87% 30.01 in 10.0 mi North 18.4 mph 27.6 mph N/A   Overcast
5:55 PM 44.6 °F 36.6 °F 41.0 °F 87% 30.02 in 10.0 mi NNW 19.6 mph 28.8 mph N/A   Overcast
6:15 PM 44.6 °F 36.1 °F 39.2 °F 81% 30.02 in 10.0 mi North 21.9 mph 29.9 mph N/A   Overcast
6:35 PM 44.6 °F 37.8 °F 41.0 °F 87% 30.03 in 10.0 mi North 15.0 mph 26.5 mph N/A   Overcast
6:55 PM 44.6 °F 36.4 °F 41.0 °F 87% 30.04 in 10.0 mi North 20.7 mph 27.6 mph N/A   Overcast
7:15 PM 44.6 °F 36.9 °F 39.2 °F 81% 30.05 in 10.0 mi North 18.4 mph 26.5 mph N/A   Overcast
7:35 PM 42.8 °F 34.0 °F 39.2 °F 87% 30.05 in 10.0 mi North 20.7 mph 26.5 mph N/A   Overcast
7:55 PM 42.8 °F 34.8 °F 39.2 °F 87% 30.05 in 10.0 mi North 17.3 mph 26.5 mph N/A   Overcast
8:15 PM 42.8 °F 35.4 °F 39.2 °F 87% 30.05 in 10.0 mi North 15.0 mph 25.3 mph N/A   Overcast
8:35 PM 42.8 °F 34.8 °F 39.2 °F 87% 30.04 in 10.0 mi NNW 17.3 mph 26.5 mph N/A   Overcast
8:55 PM 41.0 °F 32.2 °F 39.2 °F 93% 30.05 in 10.0 mi NNW 18.4 mph 28.8 mph N/A   Overcast
9:15 PM 41.0 °F 33.1 °F 39.2 °F 93% 30.06 in 10.0 mi North 15.0 mph 26.5 mph N/A   Overcast
9:35 PM 41.0 °F 31.4 °F 37.4 °F 87% 30.06 in 10.0 mi North 21.9 mph 31.1 mph N/A   Overcast
9:55 PM 41.0 °F 32.5 °F 37.4 °F 87% 30.07 in 10.0 mi NNW 17.3 mph 25.3 mph N/A   Overcast
10:15 PM 41.0 °F 31.9 °F 37.4 °F 87% 30.08 in 10.0 mi North 19.6 mph 28.8 mph N/A   Overcast
10:35 PM 41.0 °F 31.9 °F 37.4 °F 87% 30.08 in 10.0 mi North 19.6 mph 26.5 mph N/A   Overcast
10:55 PM 39.2 °F 29.0 °F 37.4 °F 93% 30.08 in 10.0 mi North 21.9 mph 27.6 mph N/A   Overcast
11:15 PM 39.2 °F 29.0 °F 37.4 °F 93% 30.08 in 10.0 mi NNW 21.9 mph 31.1 mph N/A   Overcast
11:35 PM 39.2 °F 30.8 °F 37.4 °F 93% 30.08 in 10.0 mi North 15.0 mph 24.2 mph N/A   Overcast
11:55 PM 39.2 °F 29.6 °F 37.4 °F 93% 30.08 in 10.0 mi North 19.6 mph 26.5 mph N/A   Overcast